TimeEST,TemperatureF,Dew PointF,Humidity,Sea Level PressureIn,VisibilityMPH,Wind Direction,Wind SpeedMPH,Gust SpeedMPH,PrecipitationIn,Events,Conditions,WindDirDegrees,DateUTC
12:15 AM,39.2,39.2,100,30.20,10.0,Calm,Calm,-,N/A,,Clear,0,2012-11-09 05:15:00
12:35 AM,39.2,39.2,100,30.21,10.0,Calm,Calm,-,N/A,,Clear,0,2012-11-09 05:35:00
12:55 AM,39.2,39.2,100,30.20,10.0,Calm,Calm,-,N/A,,Clear,0,2012-11-09 05:55:00
1:15 AM,37.4,37.4,100,30.21,10.0,Calm,Calm,-,N/A,,Clear,0,2012-11-09 06:15:00
1:35 AM,37.4,37.4,100,30.21,10.0,Calm,Calm,-,N/A,,Clear,0,2012-11-09 06:35:00
1:55 AM,37.4,37.4,100,30.21,10.0,Calm,Calm,-,N/A,,Clear,0,2012-11-09 06:55:00
2:15 AM,37.4,37.4,100,30.21,10.0,Calm,Calm,-,N/A,,Clear,0,2012-11-09 07:15:00
2:35 AM,35.6,35.6,100,30.22,7.0,Calm,Calm,-,N/A,,Clear,0,2012-11-09 07:35:00
2:55 AM,35.6,35.6,100,30.22,7.0,Calm,Calm,-,N/A,,Clear,0,2012-11-09 07:55:00
3:15 AM,37.4,37.4,100,30.22,7.0,Calm,Calm,-,N/A,,Clear,0,2012-11-09 08:15:00
3:35 AM,35.6,35.6,100,30.22,7.0,Calm,Calm,-,N/A,,Clear,0,2012-11-09 08:35:00
3:55 AM,35.6,35.6,100,30.22,7.0,Calm,Calm,-,N/A,,Clear,0,2012-11-09 08:55:00
4:15 AM,33.8,33.8,100,30.22,7.0,Calm,Calm,-,N/A,,Clear,0,2012-11-09 09:15:00
4:35 AM,33.8,33.8,100,30.23,7.0,Calm,Calm,-,N/A,,Clear,0,2012-11-09 09:35:00
4:55 AM,33.8,33.8,100,30.23,5.0,Calm,Calm,-,N/A,,Clear,0,2012-11-09 09:55:00
5:15 AM,33.8,33.8,100,30.24,5.0,Calm,Calm,-,N/A,,Clear,0,2012-11-09 10:15:00
5:35 AM,33.8,33.8,100,30.24,5.0,Calm,Calm,-,N/A,,Clear,0,2012-11-09 10:35:00
5:55 AM,32.0,32.0,100,30.25,4.0,Calm,Calm,-,N/A,,Clear,0,2012-11-09 10:55:00
6:15 AM,33.8,33.8,100,30.26,5.0,Calm,Calm,-,N/A,,Clear,0,2012-11-09 11:15:00
6:35 AM,32.0,32.0,100,30.26,7.0,Calm,Calm,-,N/A,,Clear,0,2012-11-09 11:35:00
6:55 AM,32.0,32.0,100,30.27,7.0,Calm,Calm,-,N/A,,Clear,0,2012-11-09 11:55:00
7:15 AM,32.0,32.0,100,30.28,7.0,Calm,Calm,-,N/A,,Clear,0,2012-11-09 12:15:00
7:35 AM,33.8,33.8,100,30.29,7.0,Calm,Calm,-,N/A,,Clear,0,2012-11-09 12:35:00
7:55 AM,35.6,35.6,100,30.30,10.0,Calm,Calm,-,N/A,,Clear,0,2012-11-09 12:55:00
8:15 AM,41.0,41.0,100,30.30,10.0,Calm,Calm,-,N/A,,Clear,0,2012-11-09 13:15:00
8:35 AM,44.6,42.8,93,30.31,10.0,Calm,Calm,-,N/A,,Clear,0,2012-11-09 13:35:00
8:55 AM,46.4,42.8,87,30.31,10.0,Calm,Calm,-,N/A,,Clear,0,2012-11-09 13:55:00
9:15 AM,50.0,41.0,71,30.31,10.0,Calm,Calm,-,N/A,,Clear,0,2012-11-09 14:15:00
9:35 AM,51.8,39.2,62,30.32,10.0,Calm,Calm,-,N/A,,Clear,0,2012-11-09 14:35:00
9:55 AM,53.6,37.4,54,30.33,10.0,Calm,Calm,-,N/A,,Clear,0,2012-11-09 14:55:00
10:15 AM,55.4,37.4,51,30.33,10.0,Calm,Calm,-,N/A,,Clear,0,2012-11-09 15:15:00
10:35 AM,57.2,37.4,48,30.33,10.0,Calm,Calm,-,N/A,,Clear,0,2012-11-09 15:35:00
10:55 AM,60.8,33.8,36,30.33,10.0,Calm,Calm,-,N/A,,Clear,0,2012-11-09 15:55:00
11:15 AM,62.6,32.0,32,30.32,10.0,WNW,3.5,-,N/A,,Clear,290,2012-11-09 16:15:00
11:35 AM,62.6,32.0,32,30.31,10.0,WNW,4.6,-,N/A,,Clear,290,2012-11-09 16:35:00
11:55 AM,64.4,32.0,30,30.30,10.0,West,3.5,-,N/A,,Clear,260,2012-11-09 16:55:00
12:15 PM,64.4,30.2,28,30.29,10.0,NW,3.5,-,N/A,,Clear,310,2012-11-09 17:15:00
12:35 PM,66.2,30.2,26,30.28,10.0,NNW,4.6,-,N/A,,Clear,330,2012-11-09 17:35:00
12:55 PM,68.0,28.4,23,30.27,10.0,NW,5.8,-,N/A,,Clear,310,2012-11-09 17:55:00
1:15 PM,69.8,28.4,21,30.26,10.0,NE,4.6,-,N/A,,Clear,40,2012-11-09 18:15:00
1:35 PM,69.8,26.6,20,30.25,10.0,NW,5.8,-,N/A,,Clear,310,2012-11-09 18:35:00
1:55 PM,69.8,24.8,18,30.24,10.0,NW,5.8,-,N/A,,Clear,320,2012-11-09 18:55:00
2:15 PM,69.8,26.6,20,30.24,10.0,Calm,Calm,-,N/A,,Clear,0,2012-11-09 19:15:00
2:35 PM,69.8,24.8,18,30.23,10.0,NNW,4.6,-,N/A,,Clear,330,2012-11-09 19:35:00
2:55 PM,69.8,24.8,18,30.23,10.0,Calm,Calm,-,N/A,,Clear,0,2012-11-09 19:55:00
3:15 PM,71.6,23.0,16,30.23,10.0,WNW,3.5,-,N/A,,Clear,300,2012-11-09 20:15:00
3:35 PM,69.8,21.2,16,30.22,10.0,NW,6.9,-,N/A,,Clear,320,2012-11-09 20:35:00
3:55 PM,69.8,23.0,17,30.22,10.0,Calm,Calm,-,N/A,,Clear,0,2012-11-09 20:55:00
4:15 PM,69.8,23.0,17,30.22,10.0,NNE,3.5,-,N/A,,Clear,20,2012-11-09 21:15:00
4:35 PM,69.8,26.6,20,30.22,10.0,Calm,Calm,-,N/A,,Clear,0,2012-11-09 21:35:00
4:55 PM,69.8,26.6,20,30.22,10.0,Calm,Calm,-,N/A,,Clear,0,2012-11-09 21:55:00
5:15 PM,64.4,32.0,30,30.22,10.0,Calm,Calm,-,N/A,,Clear,0,2012-11-09 22:15:00
5:35 PM,59.0,37.4,45,30.23,10.0,Calm,Calm,-,N/A,,Clear,0,2012-11-09 22:35:00
5:55 PM,53.6,41.0,62,30.23,10.0,Calm,Calm,-,N/A,,Clear,0,2012-11-09 22:55:00
6:15 PM,53.6,41.0,62,30.24,10.0,Calm,Calm,-,N/A,,Clear,0,2012-11-09 23:15:00
6:35 PM,50.0,41.0,71,30.24,10.0,Calm,Calm,-,N/A,,Clear,0,2012-11-09 23:35:00
6:55 PM,48.2,41.0,76,30.24,10.0,Calm,Calm,-,N/A,,Clear,0,2012-11-09 23:55:00
7:15 PM,48.2,39.2,71,30.25,10.0,Calm,Calm,-,N/A,,Clear,0,2012-11-10 00:15:00
7:35 PM,44.6,41.0,87,30.25,10.0,Calm,Calm,-,N/A,,Clear,0,2012-11-10 00:35:00
7:55 PM,44.6,41.0,87,30.25,10.0,Calm,Calm,-,N/A,,Clear,0,2012-11-10 00:55:00
8:15 PM,46.4,39.2,76,30.26,10.0,Calm,Calm,-,N/A,,Clear,0,2012-11-10 01:15:00
8:55 PM,44.6,37.4,76,30.27,10.0,Calm,Calm,-,N/A,,Clear,0,2012-11-10 01:55:00
9:15 PM,44.6,37.4,76,30.27,10.0,Calm,Calm,-,N/A,,Clear,0,2012-11-10 02:15:00
9:35 PM,42.8,39.2,87,30.28,10.0,Calm,Calm,-,N/A,,Clear,0,2012-11-10 02:35:00
9:55 PM,41.0,41.0,100,30.28,10.0,Calm,Calm,-,N/A,,Clear,0,2012-11-10 02:55:00
10:15 PM,41.0,41.0,100,30.28,10.0,Calm,Calm,-,N/A,,Clear,0,2012-11-10 03:15:00
10:35 PM,41.0,41.0,100,30.28,10.0,Calm,Calm,-,N/A,,Clear,0,2012-11-10 03:35:00
10:55 PM,41.0,41.0,100,30.28,10.0,Calm,Calm,-,N/A,,Clear,0,2012-11-10 03:55:00
11:15 PM,41.0,41.0,100,30.28,10.0,Calm,Calm,-,N/A,,Clear,0,2012-11-10 04:15:00
11:35 PM,39.2,37.4,93,30.29,10.0,Calm,Calm,-,N/A,,Clear,0,2012-11-10 04:35:00
11:55 PM,37.4,37.4,100,30.29,10.0,Calm,Calm,-,N/A,,Clear,0,2012-11-10 04:55:00